Flag for U.S.A. Weather past 2 weeks in Honolulu, Hawaii, U.S.A.

Now
75 °F

Passing clouds.


Feels Like: 76 °F
Forecast: 66 / 76 °F
Wind: 8 mph from South

Location: Honolulu International Airport

Current Time: Jan 29, 2015 at 5:04:22 AM

Latest Report: Jan 29, 2015 at 3:53 AM


Visibility: 9 mi

Pressure: 29.88 "Hg

Humidity: 76%

Dew point: 67 °F

Location of HonoluluLocation

Historic Weather in Honolulu — Graph

°F

Honolulu temperature yesterday

Maximum temperature yesterday: 80 °F (at 11:53 AM)
Minimum temperature yesterday: 70 °F (at 2:53 AM)
Average temperature yesterday: 75 °F

Past Weeks' High & Low Weather Summary

 TemperatureHumidityPressure
High84 °F (Jan 18, 2:53 PM)100% (Jan 23, 4:26 PM)30.11 "Hg (Jan 23, 4:26 PM)
Low64 °F (Jan 27, 5:53 AM)40% (Jan 18, 2:53 PM)29.88 "Hg (Jan 28, 2:53 PM)
Average74 °F75%29.99 "Hg
* Reported Jan 14 3:53 AM — Jan 29 3:53 AM, Honolulu, Weather by CustomWeather, © 2014

Note: Actual official high and low records may vary slightly from our data, if they occured in-between our weather recording intervals... More about our weather records

Advertising

Honolulu weather history for previous 24 hours

 ConditionsComfort  
Time TempWeatherWind HumidityBarometerVisibility
3:53 AM
Jan 29
75 °FPassing clouds.8 mph76%29.88 "Hg9 mi
2:53 AM75 °FPartly cloudy.8 mph76%29.89 "Hg10 mi
1:53 AM75 °FPartly cloudy.6 mph76%29.89 "Hg10 mi
12:53 AM75 °FPassing clouds.7 mph76%29.91 "Hg10 mi
11:53 PM
Jan 28
75 °FPartly cloudy.3 mph79%29.92 "Hg10 mi
10:53 PM74 °FPartly cloudy.3 mph79%29.93 "Hg10 mi
9:53 PM75 °FPartly cloudy.5 mph76%29.94 "Hg10 mi
8:53 PM75 °FPartly cloudy.3 mph76%29.93 "Hg10 mi
7:53 PM75 °FPartly cloudy.No wind76%29.92 "Hg10 mi
6:53 PM75 °FPassing clouds.No wind76%29.92 "Hg10 mi
5:53 PM76 °FScattered clouds.No wind72%29.91 "Hg10 mi
4:53 PM77 °FScattered clouds.6 mph71%29.89 "Hg10 mi
3:53 PM79 °FScattered clouds.5 mph67%29.89 "Hg10 mi
2:53 PM79 °FScattered clouds.6 mph67%29.88 "Hg10 mi
1:53 PM79 °FScattered clouds.9 mph65%29.89 "Hg10 mi
12:53 PM79 °FScattered clouds.7 mph60%29.93 "Hg10 mi
11:53 AM80 °FScattered clouds.7 mph56%29.96 "Hg10 mi
10:53 AM79 °FScattered clouds.8 mph58%29.96 "Hg10 mi
9:53 AM78 °FPartly sunny.3 mph60%29.98 "Hg10 mi
8:53 AM75 °FPartly sunny.6 mph69%29.96 "Hg10 mi
7:53 AM72 °FBroken clouds.3 mph76%29.96 "Hg10 mi
6:53 AM71 °FOvercast.3 mph78%29.94 "Hg10 mi
5:53 AM70 °FPartly cloudy.7 mph84%29.93 "Hg10 mi
Weather by CustomWeather, © 2014

See weather overviewHow to use our weather pages